This is the latest recevied weather packets stored in our database for station/object WX9WTF. If no packets are shown the sender has not sent any weather packets the latest 1 day(s).
| Time | Temp. | Humidity | Pressure | Rain* | Wind** | Luminosity | Snow |
|---|---|---|---|---|---|---|---|
| 1778017723 | 9.44° C | 96% | 1012.8 hPa | 0 mm | - | 196 W/m² | - |
| 1778017420 | 9.44° C | 96% | 1013.1 hPa | 0 mm | - | 118 W/m² | - |
| 1778017117 | 8.89° C | 97% | 1012.6 hPa | 0 mm | - | 316 W/m² | - |
| 1778016208 | 8.89° C | 98% | 1012.7 hPa | 0 mm | - | 154 W/m² | - |
| 1778015602 | 8.89° C | 99% | 1012.6 hPa | 0 mm | - | 215 W/m² | - |
| 1778014995 | 8.33° C | 99% | 1012.9 hPa | 0 mm | - | 129 W/m² | - |
| 1778014692 | 8.33° C | 99% | 1012.6 hPa | 0 mm | - | 198 W/m² | - |
| 1778012267 | 7.22° C | 99% | 1012.6 hPa | 1.27 mm | - | 130 W/m² | - |
| 1778011360 | 7.22° C | 99% | 1013 hPa | 0.51 mm | - | 100 W/m² | - |
| 1778011055 | 7.22° C | 99% | 1012.6 hPa | 1.27 mm | - | 107 W/m² | - |
| 1778008028 | 6.67° C | 98% | 1012.8 hPa | 1.78 mm | - | 66 W/m² | - |
| 1778006817 | 6.67° C | 97% | 1012.9 hPa | 3.05 mm | - | 63 W/m² | - |
| 1778006211 | 6.67° C | 97% | 1012.8 hPa | 0 mm | - | 44 W/m² | - |
| 1778004998 | 6.67° C | 96% | 1013.3 hPa | 1.27 mm | - | 72 W/m² | - |
| 1778004696 | 6.67° C | 96% | 1012.9 hPa | 0.51 mm | - | 62 W/m² | - |
| 1778003785 | 6.67° C | 96% | 1013.7 hPa | 3.56 mm | - | 46 W/m² | - |
| 1778003482 | 6.67° C | 96% | 1013.4 hPa | 2.29 mm | - | 62 W/m² | - |
| 1778003178 | 6.67° C | 96% | 1013.1 hPa | 1.27 mm | - | 48 W/m² | - |
| 1778002874 | 7.22° C | 95% | 1013.4 hPa | 0.51 mm | - | 45 W/m² | - |
| 1778002268 | 7.22° C | 95% | 1013.2 hPa | 0 mm | - | 53 W/m² | - |
| 1778001966 | 7.22° C | 95% | 1013.1 hPa | 0 mm | - | 24 W/m² | - |
| 1777998931 | 8.33° C | 91% | 1012.9 hPa | 4.83 mm | - | 77 W/m² | - |
| 1777998018 | 8.33° C | 90% | 1013.8 hPa | 0 mm | - | 36 W/m² | - |
* Rain latest hour (hover to see other rain measurements)
** Current wind speed in m/s (hover to see current wind gust speed)